This demonstration page uses our WeatherBlox Daily Observations layout. Learn more.

38.89511, -77.03637

Hourly Observations for August 13, 2015

Temp ( °F °C ) Dew Point ( °F °C ) Humidity (%) Winds ( mph kmh ) Pressure ( in mb ) Visibility ( mi km ) Precip ( " mm )
12:52 am 00:52 Clear 73 22.8 58 14.4 59 59 NNW 8 13 30.01 1016 10 16.0934 0 0
1:52 am 01:52 Mostly Clear 71 21.7 58 14.4 63 63 NNW 6 9 30.01 1016 10 16.0934 0 0
2:52 am 02:52 Partly Cloudy 70 21.1 58 14.4 66 66 NNW 6 9 30.01 1016 10 16.0934 0 0
3:52 am 03:52 Cloudy 71 21.7 58 14.4 63 63 NNW 6 9 30.03 1017 10 16.0934 0 0
4:52 am 04:52 Mostly Cloudy 71 21.7 58 14.4 63 63 N 8 13 30.04 1017 10 16.0934 0 0
5:52 am 05:52 Mostly Cloudy 69 20.6 58 14.4 68 68 NNW 8 13 30.05 1018 10 16.0934 0 0
6:52 am 06:52 Partly Cloudy 68 20 57 13.9 68 68 N 8 13 30.07 1018 10 16.0934 0 0
7:52 am 07:52 Mostly Sunny 70 21.1 58 14.4 66 66 N 7 11 30.09 1019 10 16.0934 0 0
8:52 am 08:52 Mostly Sunny 73 22.8 59 15 62 62 NNW 7 11 30.09 1019 10 16.0934 0 0
9:52 am 09:52 Mostly Sunny 76 24.4 60 15.6 58 58 NW 8 13 30.1 1019 10 16.0934 0 0
10:52 am 10:52 Partly Cloudy 78 25.6 58 14.4 50 50 N 7 11 30.11 1020 10 16.0934 0 0
11:52 am 11:52 Partly Cloudy 81 27.2 55 12.8 41 41 VRB 7 11 30.1 1019 10 16.0934 0 0
12:52 pm 12:52 Partly Cloudy 82 27.8 55 12.8 40 40 NNW 6 9 30.1 1019 10 16.0934 0 0
1:52 pm 13:52 Mostly Cloudy 83 28.3 51 10.6 33 33 WSW 8 13 30.09 1019 10 16.0934 0 0
2:52 pm 14:52 Mostly Cloudy 84 28.9 48 8.9 29 29 W 13 20 30.08 1019 10 16.0934 0 0
3:52 pm 15:52 Mostly Cloudy 84 28.9 45 7.2 25 25 NNW 8 13 30.08 1019 10 16.0934 0 0
4:52 pm 16:52 Mostly Cloudy 83 28.3 49 9.4 31 31 NNW 10 17 30.08 1019 10 16.0934 0 0
5:52 pm 17:52 Mostly Cloudy 82 27.8 45 7.2 27 27 NW 7 11 30.08 1019 10 16.0934 0 0
6:52 pm 18:52 Mostly Cloudy 81 27.2 50 10 34 34 NNW 9 15 30.08 1019 10 16.0934 0 0
7:52 pm 19:52 Mostly Cloudy 79 26.1 49 9.4 35 35 NNW 8 13 30.08 1019 10 16.0934 0 0
8:52 pm 20:52 Mostly Cloudy 77 25 49 9.4 37 37 NNW 6 9 30.1 1019 10 16.0934 0 0
9:52 pm 21:52 Partly Cloudy 77 25 50 10 39 39 Calm 30.12 1020 10 16.0934 0 0
10:52 pm 22:52 Mostly Clear 72 22.2 55 12.8 55 55 Calm 30.13 1020 10 16.0934 0 0
11:52 pm 23:52 Mostly Clear 71 21.7 55 12.8 57 57 WSW 5 7 30.14 1021 10 16.0934 0 0

Powered by AerisWeather